Weather History for KCKP - May, 2013

Change the Weather History Date:

Friday, May 10, 2013

  Actual Average Record
Temperature  
Mean Temperature 53 °F -  
Max Temperature 67 °F 70 °F 92 °F (1987)
Min Temperature 40 °F 44 °F 29 °F (1968)
Degree Days  
Heating Degree Days 12    
Growing Degree Days 3 (Base 50)    
Moisture  
Dew Point 41 °F    
Average Humidity 64    
Maximum Humidity 89    
Minimum Humidity 30    
Precipitation  
Precipitation 0.00 in - - ()
Sea Level Pressure  
Sea Level Pressure 30.05 in    
Wind  
Wind Speed 9 mph (NNW)    
Max Wind Speed 17 mph    
Max Gust Speed 24 mph    
Visibility 10 miles    
Events      
Averages and records for this station are not official NWS values.
T = Trace of Precipitation, MM = Missing Value Source: NWS Daily Summary

Daily Weather History Graph

Daily Weather History Graph

Search for Another Location

Airport or City:

Trip Planner

Search our weather history database for the weather conditions in past years. The results will help you decide how hot, cold, wet, or windy it might be!

Date:

Astronomy

May. 10, 2013 Rise Set
Actual Time 6:04 AM CDT 8:32 PM CDT
Civil Twilight 5:33 AM CDT 9:04 PM CDT
Nautical Twilight 4:53 AM CDT 9:44 PM CDT
Astronomical Twilight 4:08 AM CDT 10:29 PM CDT
Moon 6:29 AM CDT (5/10) 9:23 PM CDT (5/10)
Length of Visible Light 15h 31m
Length of Day
14h 28m
New Moon, 0% of the Moon is Illuminated
May 10
New Moon
May 17
First Quarter
May 24
Full
May 31
Last Quarter
Jun 8
New

Hourly Weather History & Observations

Time (CDT) Temp. Windchill Dew Point Humidity Pressure Visibility Wind Dir Wind Speed Gust Speed Precip Events Conditions
12:15 AM 49.1 °F - 45.5 °F 87% 30.05 in 10.0 mi North 17.3 mph 23.0 mph N/A   Overcast
12:55 AM 48.0 °F - 44.6 °F 88% 30.06 in 10.0 mi North 13.8 mph 24.2 mph N/A   Overcast
1:15 AM 47.7 °F - 44.6 °F 89% 30.06 in 10.0 mi NNE 13.8 mph 18.4 mph N/A   Overcast
1:35 AM 47.7 °F - 44.4 °F 89% 30.05 in 10.0 mi NNE 13.8 mph 19.6 mph N/A   Overcast
1:55 AM 47.5 °F - 44.2 °F 89% 30.05 in 10.0 mi North 11.5 mph - N/A   Overcast
2:15 AM 47.3 °F - 43.7 °F 87% 30.04 in 10.0 mi NNE 12.7 mph - N/A   Overcast
2:35 AM 46.4 °F 41.1 °F 43.0 °F 88% 30.04 in 10.0 mi NNE 11.5 mph - N/A   Scattered Clouds
2:55 AM 45.7 °F 41.0 °F 42.6 °F 89% 30.04 in 10.0 mi NNE 9.2 mph - N/A   Clear
3:15 AM 45.5 °F 41.3 °F 42.1 °F 88% 30.05 in 10.0 mi NNE 8.1 mph - N/A   Clear
3:35 AM 44.8 °F 41.0 °F 41.5 °F 88% 30.06 in 10.0 mi North 6.9 mph - N/A   Clear
3:55 AM 44.2 °F 39.2 °F 40.5 °F 87% 30.06 in 10.0 mi North 9.2 mph - N/A   Mostly Cloudy
4:15 AM 44.6 °F 40.7 °F 40.3 °F 85% 30.06 in 10.0 mi North 6.9 mph - N/A   Overcast
4:35 AM 43.9 °F 38.8 °F 40.1 °F 87% 30.06 in 10.0 mi North 9.2 mph - N/A   Overcast
4:55 AM 43.5 °F 38.9 °F 38.5 °F 82% 30.07 in 10.0 mi North 8.1 mph 16.1 mph N/A   Mostly Cloudy
5:15 AM 42.3 °F 36.8 °F 37.6 °F 83% 30.07 in 10.0 mi North 9.2 mph - N/A   Scattered Clouds
5:35 AM 41.5 °F 36.4 °F 36.5 °F 82% 30.08 in 10.0 mi North 8.1 mph - N/A   Clear
5:55 AM 41.0 °F 35.2 °F 35.4 °F 81% 30.08 in 10.0 mi North 9.2 mph - N/A   Clear
6:15 AM 40.5 °F 34.1 °F 34.7 °F 80% 30.08 in 10.0 mi North 10.4 mph - N/A   Clear
6:35 AM 40.1 °F 34.1 °F 34.7 °F 81% 30.08 in 10.0 mi North 9.2 mph - N/A   Clear
7:15 AM 40.5 °F 33.6 °F 34.7 °F 80% 30.08 in 10.0 mi NNE 11.5 mph - N/A   Clear
7:35 AM 41.7 °F 35.6 °F 34.7 °F 76% 30.09 in 10.0 mi NNE 10.4 mph - N/A   Clear
8:15 AM 43.3 °F 39.2 °F 35.2 °F 73% 30.10 in 10.0 mi NNE 6.9 mph - N/A   Clear
8:35 AM 44.6 °F 42.2 °F 36.9 °F 74% 30.10 in 10.0 mi North 4.6 mph - N/A   Clear
8:55 AM 45.5 °F 41.8 °F 36.9 °F 72% 30.10 in 10.0 mi North 6.9 mph - N/A   Clear
9:15 AM 46.6 °F - 37.4 °F 70% 30.10 in 10.0 mi North 5.8 mph - N/A   Clear
9:35 AM 48.4 °F - 39.2 °F 71% 30.10 in 10.0 mi NNW 8.1 mph - N/A   Clear
9:55 AM 50.0 °F - 41.0 °F 71% 30.10 in 10.0 mi North 6.9 mph - N/A   Clear
10:15 AM 51.1 °F - 41.7 °F 70% 30.10 in 10.0 mi NNW 3.5 mph - N/A   Clear
10:35 AM 52.2 °F - 42.4 °F 69% 30.10 in 10.0 mi NNW 5.8 mph - N/A   Clear
10:55 AM 53.4 °F - 44.2 °F 71% 30.10 in 10.0 mi North 5.8 mph - N/A   Clear
11:15 AM 54.9 °F - 45.1 °F 70% 30.10 in 10.0 mi North 5.8 mph - N/A   Clear
11:35 AM 55.8 °F - 45.7 °F 69% 30.09 in 10.0 mi North 8.1 mph - N/A   Clear
12:15 PM 58.5 °F - 46.9 °F 66% 30.09 in 10.0 mi North 10.4 mph - N/A   Clear
12:35 PM 59.2 °F - 47.1 °F 64% 30.08 in 10.0 mi North 8.1 mph - N/A   Clear
12:55 PM 59.7 °F - 47.3 °F 63% 30.08 in 10.0 mi NW 9.2 mph - N/A   Clear
1:15 PM 60.8 °F - 46.8 °F 60% 30.08 in 10.0 mi NW 9.2 mph - N/A   Clear
1:35 PM 62.2 °F - 47.3 °F 58% 30.07 in 10.0 mi NNW 9.2 mph - N/A   Clear
1:55 PM 63.0 °F - 43.5 °F 49% 30.07 in 10.0 mi NNW 3.5 mph 16.1 mph N/A   Scattered Clouds
2:15 PM 63.1 °F - 42.4 °F 47% 30.06 in 10.0 mi NNW 6.9 mph 10.4 mph N/A   Scattered Clouds
2:35 PM 63.3 °F - 41.5 °F 45% 30.06 in 10.0 mi NNW 8.1 mph 17.3 mph N/A   Scattered Clouds
2:55 PM 64.2 °F - 41.2 °F 43% 30.06 in 10.0 mi NW 6.9 mph - N/A   Scattered Clouds
3:15 PM 65.3 °F - 42.1 °F 43% 30.05 in 10.0 mi NW 11.5 mph - N/A   Scattered Clouds
3:35 PM 65.5 °F - 41.4 °F 41% 30.04 in 10.0 mi NW 6.9 mph 20.7 mph N/A   Clear
3:55 PM 65.5 °F - 41.7 °F 42% 30.03 in 10.0 mi NNW 10.4 mph 16.1 mph N/A   Clear
4:15 PM 65.7 °F - 41.0 °F 41% 30.03 in 10.0 mi WNW 10.4 mph - N/A   Clear
4:35 PM 66.6 °F - 40.1 °F 38% 30.01 in 10.0 mi North 8.1 mph - N/A   Clear
5:15 PM 66.9 °F - 37.9 °F 34% 30.00 in 10.0 mi NW 10.4 mph - N/A   Clear
5:35 PM 66.4 °F - 39.0 °F 37% 30.00 in 10.0 mi NW 6.9 mph 19.6 mph N/A   Clear
5:55 PM 66.6 °F - 38.5 °F 36% 30.00 in 10.0 mi West 10.4 mph 16.1 mph N/A   Clear
6:15 PM 66.6 °F - 36.5 °F 33% 29.99 in 10.0 mi NNW 5.8 mph 9.2 mph N/A   Clear
6:35 PM 66.7 °F - 36.0 °F 32% 29.99 in 10.0 mi WNW 9.2 mph - N/A   Clear
6:55 PM 66.4 °F - 34.2 °F 30% 29.98 in 10.0 mi NNW 9.2 mph - N/A   Clear
7:15 PM 65.8 °F - 36.1 °F 33% 29.98 in 10.0 mi WNW 6.9 mph - N/A   Clear
7:35 PM 65.5 °F - 35.4 °F 33% 29.98 in 10.0 mi NW 4.6 mph - N/A   Clear
7:55 PM 64.6 °F - 36.9 °F 36% 29.98 in 10.0 mi NW 4.6 mph - N/A   Clear
8:15 PM 63.1 °F - 38.7 °F 40% 29.99 in 10.0 mi WNW 4.6 mph - N/A   Clear
8:35 PM 61.7 °F - 39.6 °F 44% 29.99 in 10.0 mi WNW 4.6 mph - N/A   Clear
8:55 PM 60.6 °F - 39.2 °F 45% 29.99 in 10.0 mi WNW 4.6 mph - N/A   Clear
9:15 PM 58.6 °F - 40.5 °F 51% 29.99 in 10.0 mi Calm Calm - N/A   Clear
9:35 PM 55.8 °F - 41.0 °F 58% 30.00 in 10.0 mi Calm Calm - N/A   Clear
9:55 PM 55.0 °F - 41.9 °F 61% 30.01 in 10.0 mi Calm Calm - N/A   Clear
10:15 PM 53.4 °F - 42.8 °F 67% 30.01 in 10.0 mi Calm Calm - N/A   Clear
10:35 PM 53.8 °F - 42.4 °F 65% 30.00 in 10.0 mi Calm Calm - N/A   Clear
10:55 PM 52.3 °F - 42.8 °F 70% 30.00 in 10.0 mi Calm Calm - N/A   Clear
11:15 PM 50.7 °F - 43.7 °F 77% 30.00 in 10.0 mi South 3.5 mph - N/A   Clear
11:35 PM 53.1 °F - 44.2 °F 72% 30.00 in 10.0 mi South 4.6 mph - N/A   Clear
11:55 PM 52.5 °F - 44.2 °F 73% 30.00 in 10.0 mi Calm Calm - N/A   Clear